TimeCDT,TemperatureF,Dew PointF,Humidity,Sea Level PressureIn,VisibilityMPH,Wind Direction,Wind SpeedMPH,Gust SpeedMPH,PrecipitationIn,Events,Conditions,WindDirDegrees,DateUTC
12:53 AM,64.9,48.9,56,30.09,10.0,North,6.9,-,N/A,,Clear,350,2013-08-22 05:53:00
1:53 AM,64.9,48.9,56,30.10,10.0,North,8.1,-,N/A,,Partly Cloudy,360,2013-08-22 06:53:00
2:53 AM,64.9,48.9,56,30.10,10.0,North,6.9,-,0.00,Rain,Light Rain,10,2013-08-22 07:53:00
3:53 AM,63.0,50.0,63,30.13,10.0,Calm,Calm,-,0.00,Rain,Light Rain,0,2013-08-22 08:53:00
4:53 AM,55.0,50.0,83,30.16,10.0,Calm,Calm,-,0.00,,Clear,0,2013-08-22 09:53:00
5:53 AM,54.0,51.1,90,30.16,10.0,NW,3.5,-,N/A,,Partly Cloudy,310,2013-08-22 10:53:00
6:53 AM,53.1,50.0,89,30.17,10.0,Calm,Calm,-,N/A,,Clear,0,2013-08-22 11:53:00
7:53 AM,59.0,52.0,78,30.18,10.0,Calm,Calm,-,N/A,,Clear,0,2013-08-22 12:53:00
8:53 AM,66.9,48.9,52,30.19,10.0,North,4.6,-,N/A,,Clear,350,2013-08-22 13:53:00
9:53 AM,69.1,48.0,47,30.19,10.0,North,8.1,-,N/A,,Clear,360,2013-08-22 14:53:00
10:53 AM,72.0,46.0,40,30.19,10.0,NNE,6.9,-,N/A,,Clear,20,2013-08-22 15:53:00
11:53 AM,73.0,37.0,27,30.19,10.0,Variable,4.6,-,N/A,,Clear,0,2013-08-22 16:53:00
1:53 PM,77.0,41.0,28,30.17,10.0,Variable,5.8,-,N/A,,Clear,0,2013-08-22 18:53:00
2:53 PM,78.1,41.0,27,30.15,10.0,Variable,4.6,-,N/A,,Clear,0,2013-08-22 19:53:00
3:53 PM,79.0,41.0,26,30.15,10.0,Variable,5.8,-,N/A,,Clear,0,2013-08-22 20:53:00
4:53 PM,79.0,42.1,27,30.14,10.0,North,4.6,-,N/A,,Clear,350,2013-08-22 21:53:00
5:53 PM,78.1,42.1,28,30.14,10.0,Variable,5.8,-,N/A,,Clear,0,2013-08-22 22:53:00
6:53 PM,77.0,43.0,30,30.13,10.0,NNW,4.6,-,N/A,,Clear,340,2013-08-22 23:53:00
7:53 PM,73.9,44.1,34,30.13,10.0,North,6.9,-,N/A,,Clear,10,2013-08-23 00:53:00
8:53 PM,70.0,48.0,46,30.14,10.0,Calm,Calm,-,N/A,,Clear,0,2013-08-23 01:53:00
9:53 PM,66.0,50.0,56,30.15,10.0,Calm,Calm,-,N/A,,Clear,0,2013-08-23 02:53:00
10:53 PM,62.1,50.0,65,30.16,10.0,NNE,3.5,-,N/A,,Clear,30,2013-08-23 03:53:00
11:53 PM,55.0,50.0,83,30.17,10.0,Calm,Calm,-,N/A,,Clear,0,2013-08-23 04:53:00